User: anonymous   Login
Location: Unspecified
(0.0000°N, 0.0000°E)
Time: 20:36:39
(UTC+00:00)
Language:

ATEX - Orbit

View from above orbital plane
View from above orbital plane
View from above satellite
View from above satellite

Ground track
Ground track

The orbit data is extracted from the following two-line orbital elements,

1 25615U 98055C   21136.74177618  .00000110  00000-0  25601-4 0  9990
2 25615  84.9887  28.4718 0009105 137.4707 222.7199 14.45157359105618
Epoch (UTC): 16 May 2021 17:48:09
Eccentricity: 0.0009105
inclination: 84.9887°
perigee height: 735 km
apogee height: 748 km
right ascension of ascending node: 28.4718°
argument of perigee: 137.4707°
revolutions per day: 14.45157359
mean anomaly at epoch: 222.7199°
orbit number at epoch: 10561

The dashed part of the orbit path shows where the satellite is in the earth's shadow,  

DLR